Flag for U.S.A. Weather past 2 weeks in Jefferson City, Missouri, U.S.A.

Now
29 °F

Sunny.


Feels Like: 22 °F
Forecast: 26 / 43 °F
Wind: 7 mph from Northeast

Location: Jefferson City Memorial Airport

Current Time: Jan 30, 2015 at 10:42:19 AM

Latest Report: Jan 30, 2015 at 9:53 AM


Visibility: 10 mi

Pressure: 30.56 "Hg

Humidity: 66%

Dew point: 19 °F

Location of Jefferson CityLocation

Historic Weather in Jefferson City — Graph

°F

Jefferson City temperature yesterday

Maximum temperature yesterday: 55 °F (at 12:53 AM)
Minimum temperature yesterday: 34 °F (at 11:53 PM)
Average temperature yesterday: 43 °F

Past Weeks' High & Low Weather Summary

 TemperatureHumidityPressure
High62 °F (Jan 28, 3:53 PM)96% (Jan 27, 5:53 AM)30.56 "Hg (Jan 27, 5:53 AM)
Low19 °F (Jan 16, 7:53 AM)22% (Jan 18, 2:53 PM)29.57 "Hg (Jan 25, 5:53 AM)
Average39 °F66%30.05 "Hg
* Reported Jan 15 8:53 AM — Jan 30 8:53 AM, Jefferson City, Weather by CustomWeather, © 2014

Note: Actual official high and low records may vary slightly from our data, if they occured in-between our weather recording intervals... More about our weather records

Advertising

Jefferson City weather history for previous 24 hours

 ConditionsComfort  
Time TempWeatherWind HumidityBarometerVisibility
8:53 AM
Jan 30
28 °FSunny.No wind75%30.56 "Hg10 mi
7:53 AM23 °FSunny.No wind85%30.55 "Hg10 mi
6:53 AM23 °FClear.No wind85%30.53 "Hg10 mi
5:53 AM24 °FClear.No wind84%30.53 "Hg10 mi
4:53 AM25 °FClear.No wind81%30.52 "Hg10 mi
3:53 AM27 °FClear.3 mph75%30.51 "Hg10 mi
2:53 AM29 °FClear.3 mph72%30.50 "Hg10 mi
1:53 AM30 °FClear.6 mph69%30.50 "Hg10 mi
12:53 AM32 °FClear.7 mph66%30.50 "Hg10 mi
11:53 PM
Jan 29
34 °FPassing clouds.10 mph61%30.49 "Hg10 mi
10:53 PM37 °FOvercast.10 mph60%30.47 "Hg10 mi
9:53 PM38 °FOvercast.12 mph63%30.45 "Hg10 mi
8:53 PM39 °FOvercast.12 mph57%30.44 "Hg10 mi
7:53 PM39 °FOvercast.12 mph60%30.43 "Hg10 mi
6:53 PM40 °FOvercast.16 mph58%30.40 "Hg10 mi
5:53 PM41 °FOvercast.16 mph58%30.37 "Hg10 mi
4:53 PM41 °FOvercast.18 mph60%30.33 "Hg10 mi
3:53 PM42 °FOvercast.14 mph57%30.29 "Hg10 mi
2:53 PM42 °FMostly cloudy.13 mph62%30.27 "Hg10 mi
1:53 PM42 °FOvercast.16 mph60%30.24 "Hg10 mi
12:53 PM41 °FOvercast.17 mph60%30.24 "Hg10 mi
11:53 AM41 °FOvercast.17 mph58%30.22 "Hg10 mi
10:53 AM41 °FOvercast.21 mph62%30.21 "Hg10 mi
Weather by CustomWeather, © 2014

See weather overviewHow to use our weather pages